Regional Weather Roundup
Issued by NWS

Home | Current Version | Previous Version | Text Only | Print | Product List | Glossary Off
Versions: 1 2 3 4 5 6 7 8 9 10 11 12 13 14 15 16 17 18 19 20 21 22 23 24 25 26 27 28 29 30 31 32 33 34 35 36 37 38 39 40 41 42 43 44 45 46 47 48 49 50

000
ASUS43 KIND 311809
RWRIN

WEATHER ROUNDUP FOR INDIANA
NATIONAL WEATHER SERVICE INDIANAPOLIS IN
100 PM EST SAT JAN 31 2015

NOTE: "FAIR" INDICATES FEW OR NO CLOUDS BELOW 12,000 FEET WITH NO
SIGNIFICANT WEATHER AND/OR OBSTRUCTIONS TO VISIBILITY.

* - STATION DOES NOT REPORT WEATHER SUCH AS PRECIPITATION OR FOG.

+ - STATION NOT QUALITY CONTROLLED BY THE NATIONAL WEATHER SERVICE.
    USE DATA WITH CAUTION...ESPECIALLY DEWPOINT AND RELATIVE
    HUMIDITY OBSERVATIONS.

INZ001>003-010>013-019-020-311900-
NORTHWEST INDIANA

CITY           SKY/WX    TMP DP  RH WIND       PRES   REMARKS
GARY /AIRPORT/ PTSUNNY   36  19  51 S9        30.23
KNOX *+        CLOUDY    36  10  35 SW13      30.21F
LA PORTE +     MOSUNNY   37  26  65 SW13      30.21F
6HR MIN TEMP:  23; 6HR MAX TEMP:  37;

MICHIGAN CITY+ MOSUNNY   37  18  44 SW8G16    30.21F
MONTICELLO +   PTSUNNY   35  25  68 SW12      30.26F WCI  27
6HR MIN TEMP:  22; 6HR MAX TEMP:  35;

RENSSELAER +   PTSUNNY   36  30  80 SW12      30.24F
VALPARAISO     CLOUDY    35  23  61 SW10      30.21F WCI  27
6HR MIN TEMP:  21; 6HR MAX TEMP:  35;


$$

LMZ046-743>745-311900-
SOUTHERN LAKE MICHIGAN

STATION/POSITION TIME  TEMP WIND        PRES
                       AIR  DIR/SP/G
                 (UTC) (F)  (DEG/KT/KT) (MB)
MICHIGAN CITY    1800   35  190/ 12/ 15   N/A

$$

INZ004-005-014>016-021>024-311900-
NORTH CENTRAL INDIANA

CITY           SKY/WX    TMP DP  RH WIND       PRES   REMARKS
ELKHART        MOSUNNY   36  19  51 SW8       30.21F
GOSHEN         MOSUNNY   34  23  64 SW15      30.21F WCI  24
6HR MIN TEMP:  20; 6HR MAX TEMP:  35;

LOGANSPORT +   MOSUNNY   34  27  75 SW12      30.26F WCI  25
PERU/GRISSOM   MOSUNNY   35  25  67 SW15      30.25F WCI  25
6HR MIN TEMP:  20; 6HR MAX TEMP:  35;

ROCHESTER +    PTSUNNY   37  28  70 SW10      30.24F
SOUTH BEND     MOSUNNY   35  23  61 SW12      30.21F WCI  27
6HR MIN TEMP:  21; 6HR MAX TEMP:  35;

WARSAW +       SUNNY     36  23  60 SW7       30.23F

$$

INZ006>009-017-018-025>027-311900-
NORTHEAST INDIANA

CITY           SKY/WX    TMP DP  RH WIND       PRES   REMARKS
ANGOLA *+      SUNNY     34  19  55 SW10      30.20F WCI  26
AUBURN +       MOSUNNY   36  21  55 SW10      30.23F
FORT WAYNE     PTSUNNY   34  24  67 SW14      30.25F WCI  25
6HR MIN TEMP:  20; 6HR MAX TEMP:  34;

HUNTINGTON +   SUNNY     35  19  52 SW8       30.25F WCI  29
6HR MIN TEMP:  20; 6HR MAX TEMP:  35;


$$

INZ028-029-035-036-043>045-051>053-311900-
WEST CENTRAL INDIANA

CITY           SKY/WX    TMP DP  RH WIND       PRES   REMARKS
CRAWFORDSVL +  CLOUDY    33  19  54 SW12      30.28F WCI  25
GREENCASTLE +  CLOUDY    34  19  55 S9        30.30F WCI  26
LAFAYETTE      PTSUNNY   36  24  62 SW13      30.27F
6HR MIN TEMP:  19; 6HR MAX TEMP:  36;

TERRE HAUTE    CLOUDY    38  24  57 SW12      30.32F
6HR MIN TEMP:  20; 6HR MAX TEMP:  38;


$$

INZ030>032-037>040-046>048-054>057-064-065-311900-
CENTRAL INDIANA

CITY           SKY/WX    TMP DP  RH WIND       PRES   REMARKS
ANDERSON       SUNNY     36  21  55 S10       30.29F
CP ATTERBURY + CLOUDY    37  21  52 SW9       30.33F
FRANKFORT +    PTSUNNY   37  27  66 S13       30.28F
6HR MIN TEMP:  21; 6HR MAX TEMP:  37;

GREENWOOD *+   PTSUNNY   36  18  48 W9        30.30F
INDIANAPOLIS   CLOUDY    34  21  59 SW16      30.30F WCI  24
6HR MIN TEMP:  17; 6HR MAX TEMP:  34;

-EAGLE CREEK   PTSUNNY   35  22  58 SW9       30.29F WCI  28
6HR MIN TEMP:  17; 6HR MAX TEMP:  36;

KOKOMO *+      FAIR      36  27  69 SW14      30.26F
6HR MIN TEMP:  21; 6HR MAX TEMP:  36;

MARION +       SUNNY     35  24  65 W10       30.27F WCI  27
MT COMFORT *+  PTSUNNY   36  12  38 SW13      30.29F
SHELBYVILLE    CLOUDY    36  23  59 S12       30.31F
6HR MIN TEMP:  21; 6HR MAX TEMP:  36;

ZIONSVILLE +   PTSUNNY   37  22  56 SW10      30.28F
6HR MIN TEMP:  19; 6HR MAX TEMP:  37;


$$

INZ033-034-041-042-049-050-058-059-311900-
EAST CENTRAL INDIANA

CITY           SKY/WX    TMP DP  RH WIND       PRES   REMARKS
MUNCIE         SUNNY     35  23  61 SW10      30.27F WCI  27
6HR MIN TEMP:  21; 6HR MAX TEMP:  35;


$$

INZ060-061-067>069-081>083-085>088-311900-
SOUTHWEST INDIANA

CITY           SKY/WX    TMP DP  RH WIND       PRES   REMARKS
EVANSVILLE     CLOUDY    40  23  50 CALM      30.36F
6HR MIN TEMP:  25; 6HR MAX TEMP:  40;

HUNTINGBURG *+ CLOUDY    37  23  56 SW8       30.37F
6HR MIN TEMP:  21; 6HR MAX TEMP:  37;

WASHINGTON +   CLOUDY    37  22  53 SW8       30.35F
6HR MIN TEMP:  25; 6HR MAX TEMP:  37;


$$

INZ062-063-066-070>080-084-089>092-311900-
SOUTH CENTRAL AND SOUTHEAST INDIANA

CITY           SKY/WX    TMP DP  RH WIND       PRES   REMARKS
BLOOMINGTON    CLOUDY    38  23  55 SW10      30.32F
6HR MIN TEMP:  17; 6HR MAX TEMP:  38;

NORTH VERNON + PTSUNNY   36  21  55 SW7       30.34F
SEYMOUR +      CLOUDY    39  23  52 SW6       30.34F

$$




USA.gov is the U.S. government's official web portal to all federal, state and local government web resources and services.